sat.trackr.live / text

‹ back to catalog

GAOFEN-13 01

NORAD 46610 · 2020-071A

PAYLOAD ACTIVE UNKNOWN

§ Identity

Operator
Country
PRC
Launch date
2020-10-11
Launch site
XICLF
Launch vehicle
Mass (kg)
RCS (m²)

Purposes: comms

External: N2YO · Heavens-Above · Gunter

§ Orbital elements

Epoch: 2026-09-14T22:54:58.830048Z

Period
1,436.05 min
Inclination
0.1322°
Eccentricity
0.0058899
Mean motion
1.00275103 rev/d
Perigee alt
35,537.3 km
Apogee alt
36,034.0 km
Semi-major
42,163.8 km
B*
0.0000e+0
RAAN
80.3364°
Arg perigee
121.2182°
Mean anomaly
254.5626°
Rev number
2,182

§ Raw data

GAOFEN-13 011 46610U 20071A   26257.95484757 -.00000370  00000+0  00000+0 0  99972 46610   0.1322  80.3364 0058899 121.2182 254.5626  1.00275103 21829

JSON: /api/v1/satellites/46610 · /tle

For live sub-satellite position, see the globe view (requires WebGL).

§ Visibility from observer

Set your observer location to see the next 7 days of passes ≥ 10°. The values pass through the URL so the page stays shareable.

No JS? Fill the form by hand. The geolocation button needs JavaScript.